Minden-Tahoe Airport

Airport
ICAO code: 
KMEV
IATA Code: 
MEV
Summary
ICAO Region: 
NAM
Territory: 
Location: 
Minden, Nevada
Serving: 
Minden
Elevation: 
4726 ft
Coordinates: 
Aerial View: 
39° 0' 1.984" N, 119° 45' 8.305" W
Metar
Observation
KMEV 052355Z AUTO 23006KT 10SM CLR 12/M05 A3028 RMK AO2
Station
Minden-Tahoe Airport
Date/Time
2021-12-05 23:55:00
Wind direction
230°
Wind speed
06 kts
Lowest cloud amount
n/a
Temperature
12°C
Dew point
-5°C
Humidity
30%
Weather condition
n/a

Runways

Designator Length Width Surface Rops
12G/30G 671 18 DIRT-G No/No
12/30 1615 23 ASPH-G Yes/Yes
16/34 2256 30 ASP Yes/Yes
Airport map: 
Aerial View: 

SKYbrary Partners:

Safety knowledge contributed by: